User: anonymous   Login
Location: Albany
(35.0000°S, 118.0000°E)
Time: 05:56:50
(UTC-04:00)
Language:

CZ-4B R/B - Orbit

View from above orbital plane
View from above orbital plane
View from above satellite
View from above satellite

Ground track
Ground track

The orbit data is extracted from the following two-line orbital elements,

1 33410U 08053C   16144.87917332  .00001174  00000-0  90655-4 0  9995
2 33410  97.6784 114.4816 0123430  57.8729 303.4401 14.97686918412506
Epoch (UTC): 23 May 2016 21:06:00
Eccentricity: 0.0123430
inclination: 97.6784°
perigee height: 488 km
apogee height: 660 km
right ascension of ascending node: 114.4816°
argument of perigee: 57.8729°
revolutions per day: 14.97686918
mean anomaly at epoch: 303.4401°
orbit number at epoch: 41250

The dashed part of the orbit path shows where the satellite is in the earth's shadow,  

DLR